When you browse on this site, cookies collect data to enhance your experience and personalize the content and advertising you see.
Visit our Privacy Policy to learn more. By continuing to use the site, you agree to this use of cookies and data.
  • In Austria
  • List of Countries
  • For 7 days
  • Water Temperature
  • Weather Map
  • News
  • Weather Widgets
  • user-avatar
    Login

    Hourly Weather Sofia

    Today, 23 February, Sunday

    Time Temperature Precipitation Wind Pressure Humidity
    00:00 +1°C° 0 mm 1 mps 718 mmHg 87%
    01:00 +1°C° 0 mm 1 mps 718 mmHg 86%
    02:00 +1°C° 0 mm 1 mps 718 mmHg 85%
    03:00 +1°C° 0 mm 1 mps 718 mmHg 83%
    04:00 +1°C° 0 mm 1 mps 717 mmHg 82%
    05:00 +1°C° 0 mm 1 mps 717 mmHg 80%
    06:00 +1°C° 0 mm 1 mps 717 mmHg 78%
    07:00 +2°C° 0 mm 1 mps 717 mmHg 76%
    08:00 +2°C° 0 mm 1 mps 717 mmHg 73%
    09:00 +4°C° 0 mm 1 mps 716 mmHg 64%
    10:00 +6°C° 0 mm 1 mps 716 mmHg 55%
    11:00 +7°C° 0 mm 2 mps 716 mmHg 46%
    12:00 +8°C° 0 mm 2 mps 716 mmHg 44%
    13:00 +9°C° 0 mm 2 mps 715 mmHg 42%
    14:00 +12°C° 0 mm 2 mps 715 mmHg 40%
    15:00 +11°C° 0 mm 1 mps 714 mmHg 45%
    16:00 +10°C° 0 mm 1 mps 714 mmHg 51%
    17:00 +10°C° 0 mm 1 mps 713 mmHg 56%
    18:00 +9°C° 0 mm 1 mps 713 mmHg 57%
    19:00 +8°C° 0 mm 1 mps 713 mmHg 57%
    20:00 +7°C° 0 mm 1 mps 713 mmHg 58%
    21:00 +7°C° 0 mm 1 mps 712 mmHg 58%
    22:00 +7°C° 0 mm 1 mps 712 mmHg 59%
    23:00 +6°C° 0 mm 1 mps 711 mmHg 59%

    Tomorrow, 24 February, Monday

    Time Temperature Precipitation Wind Pressure Humidity
    00:00 +6°C° 0 mm 1 mps 711 mmHg 60%
    01:00 +6°C° 0 mm 1 mps 711 mmHg 61%
    02:00 +6°C° 0 mm 1 mps 710 mmHg 62%
    03:00 +6°C° 0 mm 1 mps 710 mmHg 62%
    04:00 +5°C° 0 mm 2 mps 709 mmHg 61%
    05:00 +5°C° 0 mm 2 mps 709 mmHg 60%
    06:00 +5°C° 0 mm 2 mps 709 mmHg 59%
    07:00 +5°C° 0 mm 2 mps 710 mmHg 58%
    08:00 +6°C° 0 mm 2 mps 710 mmHg 57%
    09:00 +7°C° 0 mm 2 mps 711 mmHg 56%
    10:00 +8°C° 0 mm 3 mps 711 mmHg 54%
    11:00 +10°C° 0 mm 3 mps 712 mmHg 53%
    12:00 +10°C° 0 mm 4 mps 712 mmHg 58%
    13:00 +10°C° 0 mm 4 mps 711 mmHg 62%
    14:00 +9°C° 0 mm 5 mps 711 mmHg 67%
    15:00 +8°C° 0 mm 5 mps 711 mmHg 66%
    16:00 +8°C° 0 mm 5 mps 711 mmHg 65%
    17:00 +7°C° 0 mm 5 mps 712 mmHg 64%
    18:00 +6°C° 0 mm 4 mps 712 mmHg 67%
    19:00 +5°C° 0 mm 3 mps 713 mmHg 70%
    20:00 +5°C° 0 mm 2 mps 713 mmHg 73%
    21:00 +5°C° 0 mm 1 mps 713 mmHg 73%
    22:00 +5°C° 0 mm 1 mps 714 mmHg 73%
    23:00 +4°C° 0 mm 1 mps 714 mmHg 73%

    Day after tomorrow, 25 February, Tuesday

    Time Temperature Precipitation Wind Pressure Humidity
    00:00 +4°C° 0 mm 1 mps 714 mmHg 72%
    01:00 +3°C° 0 mm 0 mps 713 mmHg 71%
    02:00 +3°C° 0 mm 0 mps 713 mmHg 69%
    03:00 +3°C° 0 mm 0 mps 713 mmHg 69%
    04:00 +4°C° 0 mm 1 mps 712 mmHg 69%
    05:00 +3°C° 0 mm 1 mps 712 mmHg 68%
    06:00 +4°C° 0 mm 1 mps 712 mmHg 68%
    07:00 +4°C° 0 mm 1 mps 712 mmHg 67%
    08:00 +4°C° 0 mm 1 mps 712 mmHg 66%
    09:00 +6°C° 0 mm 1 mps 711 mmHg 60%
    10:00 +7°C° 0 mm 2 mps 711 mmHg 53%
    11:00 +9°C° 0 mm 2 mps 711 mmHg 47%
    12:00 +10°C° 0 mm 2 mps 710 mmHg 47%
    13:00 +12°C° 0 mm 2 mps 710 mmHg 47%
    14:00 +14°C° 0 mm 2 mps 709 mmHg 48%
    15:00 +13°C° 0 mm 2 mps 708 mmHg 51%
    16:00 +13°C° 0 mm 2 mps 708 mmHg 55%
    17:00 +13°C° 0 mm 2 mps 707 mmHg 59%
    18:00 +10°C° 0 mm 2 mps 707 mmHg 64%
    19:00 +9°C° 0 mm 2 mps 707 mmHg 70%
    20:00 +7°C° 0 mm 2 mps 706 mmHg 75%
    21:00 +8°C° 0 mm 1 mps 706 mmHg 76%
    22:00 +8°C° 0 mm 1 mps 706 mmHg 78%
    23:00 +7°C° 0 mm 1 mps 706 mmHg 79%

    26 February, Wednesday

    Time Temperature Precipitation Wind Pressure Humidity
    00:00 +7°C° 0 mm 1 mps 705 mmHg 81%
    01:00 +7°C° 0 mm 1 mps 705 mmHg 82%
    02:00 +7°C° 0 mm 1 mps 704 mmHg 84%
    03:00 +6°C° 0 mm 1 mps 704 mmHg 85%
    04:00 +6°C° 0 mm 1 mps 703 mmHg 86%
    05:00 +6°C° 0 mm 1 mps 703 mmHg 87%
    06:00 +6°C° 0 mm 1 mps 703 mmHg 87%
    07:00 +6°C° 0 mm 1 mps 702 mmHg 87%
    08:00 +6°C° 0 mm 1 mps 702 mmHg 87%
    09:00 +8°C° 0 mm 1 mps 702 mmHg 79%
    10:00 +10°C° 0 mm 1 mps 702 mmHg 71%
    11:00 +11°C° 0 mm 1 mps 701 mmHg 63%
    12:00 +13°C° 0 mm 2 mps 701 mmHg 56%
    13:00 +13°C° 0 mm 3 mps 700 mmHg 49%
    14:00 +14°C° 0 mm 4 mps 700 mmHg 42%
    15:00 +14°C° 0 mm 4 mps 699 mmHg 44%
    16:00 +13°C° 0 mm 4 mps 699 mmHg 47%
    17:00 +13°C° 0 mm 4 mps 698 mmHg 50%
    18:00 +11°C° 0 mm 4 mps 698 mmHg 55%
    19:00 +10°C° 0 mm 3 mps 698 mmHg 61%
    20:00 +9°C° 0 mm 3 mps 698 mmHg 66%
    21:00 +8°C° 0 mm 3 mps 698 mmHg 69%
    22:00 +8°C° 0 mm 3 mps 699 mmHg 72%
    23:00 +7°C° 0 mm 3 mps 699 mmHg 76%

    27 February, Thursday

    Time Temperature Precipitation Wind Pressure Humidity
    00:00 +7°C° 0 mm 3 mps 699 mmHg 77%
    01:00 +7°C° 0 mm 3 mps 698 mmHg 78%
    02:00 +5°C° 0 mm 3 mps 698 mmHg 79%
    03:00 +6°C° 0 mm 2 mps 698 mmHg 80%
    04:00 +6°C° 0 mm 2 mps 698 mmHg 81%
    05:00 +6°C° 0 mm 1 mps 697 mmHg 82%
    06:00 +6°C° 0 mm 1 mps 697 mmHg 82%
    07:00 +6°C° 0 mm 1 mps 697 mmHg 82%
    08:00 +6°C° 0 mm 1 mps 697 mmHg 81%
    09:00 +8°C° 0 mm 1 mps 697 mmHg 75%
    10:00 +9°C° 0 mm 1 mps 697 mmHg 68%
    11:00 +10°C° 0 mm 2 mps 697 mmHg 61%
    12:00 +10°C° 0.4 mm 2 mps 696 mmHg 64%
    13:00 +10°C° 0.4 mm 3 mps 696 mmHg 67%
    14:00 +10°C° 0.4 mm 3 mps 695 mmHg 70%
    15:00 +9°C° 2.3 mm 3 mps 695 mmHg 77%
    16:00 +8°C° 2.3 mm 3 mps 695 mmHg 83%
    17:00 +7°C° 2.3 mm 3 mps 695 mmHg 89%
    18:00 +5°C° 4 mm 3 mps 696 mmHg 91%
    19:00 +4°C° 4 mm 3 mps 696 mmHg 93%
    20:00 +3°C° 4 mm 3 mps 696 mmHg 96%
    21:00 +1°C° 6.2 mm 4 mps 697 mmHg 96%
    22:00 0°C° 6.2 mm 4 mps 697 mmHg 97%
    23:00 -1°C° 6.2 mm 5 mps 698 mmHg 98%

    28 February, Friday

    Time Temperature Precipitation Wind Pressure Humidity
    00:00 -1°C° 3.7 mm 5 mps 699 mmHg 97%
    01:00 -1°C° 3.7 mm 5 mps 700 mmHg 96%
    02:00 -1°C° 3.7 mm 5 mps 701 mmHg 96%
    03:00 -2°C° 1.1 mm 5 mps 702 mmHg 95%
    04:00 -2°C° 1.1 mm 4 mps 702 mmHg 94%
    05:00 -3°C° 1.1 mm 4 mps 703 mmHg 93%
    06:00 -3°C° 0.4 mm 4 mps 704 mmHg 93%
    07:00 -2°C° 0.4 mm 3 mps 705 mmHg 93%
    08:00 -4°C° 0.4 mm 3 mps 707 mmHg 93%
    09:00 -2°C° 0.3 mm 3 mps 707 mmHg 92%
    10:00 -1°C° 0.3 mm 3 mps 708 mmHg 92%
    11:00 -1°C° 0.3 mm 3 mps 709 mmHg 91%
    12:00 0°C° 0.2 mm 3 mps 709 mmHg 92%
    13:00 0°C° 0.2 mm 3 mps 709 mmHg 93%
    14:00 0°C° 0.2 mm 3 mps 710 mmHg 94%
    15:00 0°C° 0.1 mm 3 mps 710 mmHg 92%
    16:00 +1°C° 0.1 mm 2 mps 710 mmHg 90%
    17:00 +1°C° 0.1 mm 2 mps 711 mmHg 89%
    18:00 +1°C° 0 mm 1 mps 711 mmHg 88%
    19:00 0°C° 0 mm 1 mps 712 mmHg 86%
    20:00 -2°C° 0 mm 1 mps 712 mmHg 85%
    21:00 -2°C° 0 mm 1 mps 712 mmHg 84%
    22:00 -2°C° 0 mm 1 mps 713 mmHg 84%
    23:00 -3°C° 0 mm 1 mps 713 mmHg 83%
    Show more